Regional Weather Roundup
Issued by NWS Sterling, VA

Home | Current Version | Previous Version | Graphics & Text | Print | Product List | Glossary On
Versions: 1 2 3 4 5 6 7 8 9 10 11 12 13 14 15 16 17 18 19 20 21 22 23 24 25 26 27 28 29 30 31 32 33 34 35 36 37 38 39 40 41 42 43 44 45 46
000
ASUS41 KLWX 241610
RWRLWX

REGIONAL WEATHER ROUNDUP
NATIONAL WEATHER SERVICE BALTIMORE MD/WASHINGTON DC
1100 AM EST WED DEC 24 2014

Note: "FAIR" indicates few or no clouds below 12,000 feet
with no significant weather and/or obstructions to visibility.
 TC=TEMPERATURE CELSIUS

 * =Non NWS site. Station does not report precipitation (e.g. rain,
    snow, etc.), thunder, or fog.

DCZ001-MDZ009-015-VAZ040>042-051-053>054-241700-
WASHINGTON METRO

CITY           SKY/WX    TMP DP  RH WIND       PRES   REMARKS
WASHINGTON NAT LGT RAIN  50  46  86 NE3       29.81F
DULLES         LGT RAIN  46  45  96 CALM      29.79F
QUANTICO       LGT RAIN  45  43  93 E3        29.80F VSB 3/4
COLLEGE PARK*  CLOUDY    48  48 100 CALM      29.81F
LEESBURG*      LGT RAIN  46  46 100 CALM      29.80F
MANASSAS*      CLOUDY    46  46 100 CALM      29.81F
GAITHERSBURG*  CLOUDY    48  46  93 E3        29.83F

$$

MDZ006>007-011-014-241700-
BALTIMORE METRO

CITY           SKY/WX    TMP DP  RH WIND       PRES   REMARKS
BWI AIRPORT    LGT RAIN  49  48  97 CALM      29.80F VSB 1
MD SCIENCE CTR   N/A     47  47 100 MISG      29.83F
MARTIN STATE   LGT RAIN  52  52 100 CALM      29.83F
ANNAPOLIS      LGT RAIN  48  47  96 CALM      29.79F VSB 1/4
FORT MEADE*    CLOUDY    46  46 100 CALM      29.83F

$$

MDZ012-015-019>023-241700-
MARYLAND EASTERN SHORE

CITY           SKY/WX    TMP DP  RH WIND       PRES   REMARKS
OCEAN CITY     LGT RAIN  55  55 100 S7        29.84F VSB 1/4
SALISBURY      CLOUDY    66  62  87 S13       29.82F
BAY BRIDGE AP* LGT RAIN  46  46 100 CALM      29.82F VSB 1
CAMBRIDGE*     CLOUDY    63  59  88 S10G20    29.80F
EASTON*        RAIN      59  59 100 S6        29.84F

$$

MDZ017>025-241700-
SOUTHERN MARYLAND

CITY           SKY/WX    TMP DP  RH WIND       PRES   REMARKS
PATUXENT RIVER LGT RAIN  52  51  97 SE5       29.80F VSB 1/4
ST INIGOES     LGT RAIN  57  54  89 SE7       29.79F FOG
LEONARDTOWN*   CLOUDY    55  55 100 CALM      29.81F

$$

MDZ003>005-241700-
NORTH CENTRAL MARYLAND

CITY           SKY/WX    TMP DP  RH WIND       PRES   REMARKS
FREDERICK*     DRIZZLE   48  45  87 CALM      29.82F
HAGERSTOWN APT LGT RAIN  46  44  93 CALM      29.78F FOG
WESTMINSTER*   RAIN      48  46  93 S3        29.80F

$$

MDZ501>502-241700-
WESTERN MARYLAND

CITY           SKY/WX    TMP DP  RH WIND       PRES   REMARKS
OAKLAND*       FOG       41 N/A N/A SE12G17   29.68F VSB<1/4
CUMBERLAND*    CLOUDY    37  37 100 CALM      29.81F

$$

VAZ025>031-241700-
SHENANDOAH VALLEY

CITY           SKY/WX    TMP DP  RH WIND       PRES   REMARKS
WINCHESTER*    DRIZZLE   45  41  87 CALM      29.77F
FRONT ROYAL*   CLOUDY    41  41 100 CALM      29.78F
LURAY*         DRIZZLE   43  43 100 CALM      29.76F
NEW MARKET*    CLOUDY    41  40  96 CALM      29.75F
STAUNTON*      DRIZZLE   44  42  93 CALM      29.78F
WAYNESBORO*    PTSUNNY   46  45  97 CALM      29.76F

$$

WVZ021-048>050-054>055-241700-
EASTERN WEST VIRGINIA PANHANDLE

CITY           SKY/WX    TMP DP  RH WIND       PRES   REMARKS
MARTINSBURG    LGT RAIN  45  42  89 N3        29.79F FOG
PETERSBURG*    CLOUDY    38  37  96 CALM      29.77F

$$

VAZ036>039-050-241700-
CENTRAL FOOTHILLS

CITY           SKY/WX    TMP DP  RH WIND       PRES   REMARKS
CHARLOTTESVILL CLOUDY    46  44  93 CALM      29.78F FOG
CULPEPER*      LGT RAIN  46  46 100 CALM      29.79F
ORANGE*        LGT RAIN  46  45  93 CALM      29.80F
GORDONSVILLE*  CLOUDY    45  44  98 CALM      29.79F
WARRENTON*     DRIZZLE   47  47 100 E3        29.78F

$$

VAZ055>057-241700-
NORTH AND CENTRAL PIEDMONT

CITY           SKY/WX    TMP DP  RH WIND       PRES   REMARKS
FREDERICKSBRG* DRIZZLE   47  47 100 CALM      29.79F
STAFFORD*      DRIZZLE   46  32  57 CALM      29.83F

$$

NCZ024-NYZ072-PAZ021-071-VAZ022-071-241700-
OTHER REGIONAL OBSERVATIONS

CITY           SKY/WX    TMP DP  RH WIND       PRES   REMARKS
NEW YORK CITY  RAIN      44  43  96 MISG      29.92F FOG
PHILADELPHIA   RAIN      51  49  92 NE6       29.85F FOG
PITTSBURGH     CLOUDY    54  51  90 E5        29.61F
ROANOKE        LGT RAIN  45  44  97 CALM      29.81F FOG
RICHMOND       RAIN      51  49  92 E5        29.77F VSB 1
RALEIGH        LGT RAIN  53  52  96 CALM      29.81F FOG

$$

ANZ530>537-241700-
MARINE OBSERVATIONS

STATION/POSITION TIME  TEMP    WIND        PRES
                       AIR SEA DIR/SP/G
                 (UTC) (F)     (DEG/KT/KT) (MB)
THOMAS PT LIGHT  1600   48 41  250/  2/  3 1010.2F
BALT KEY BRIDGE  1600   48     340/  2/  2 1009.5F
COVE POINT       1600   51     190/ 11/ 12 1009.0F
LEWISETTA        1600   59 42  220/  6/  8 1008.6F
SOLOMONS ISLAND  1600      43                N/A
PINEY POINT      1600          110/  6/  6   N/A

$$



USA.gov is the U.S. government's official web portal to all federal, state and local government web resources and services.